VK5ARG-5 Weather Reports


time (UTC)temp
F
wind
direction
speed
knots
gust
knots
rain 1hr
in
rain 24hr
in
rain mn
in
humidity
%
barometer
mb
20260504205542 51 267 5.2 6.1 0.00 0.19 0.02 99
20260504204526 51 278 6.1 8.7 0.00 0.19 0.02 99
20260504203523 51 280 5.2 7.8 0.00 0.19 0.02 99
20260504202527 51 287 5.2 7.0 0.00 0.20 0.02 99
20260504201523 51 289 4.3 6.1 0.00 0.20 0.02 99
20260504200529 51 291 5.2 7.0 0.00 0.20 0.02 99
20260504195525 51 291 5.2 7.0 0.00 0.20 0.02 99
20260504194542 51 283 4.3 6.1 0.00 0.20 0.02 99
20260504193527 51 276 4.3 7.0 0.00 0.20 0.02 99
20260504192523 51 269 5.2 7.0 0.00 0.20 0.02 99
20260504191528 51 282 4.3 6.1 0.00 0.20 0.02 99
20260504190524 51 283 4.3 7.0 0.00 0.20 0.02 99
20260504185528 51 280 5.2 7.8 0.00 0.20 0.02 99
20260504184524 51 278 4.3 5.2 0.00 0.20 0.02 99
20260504183543 51 278 4.3 6.1 0.00 0.20 0.02 99
20260504182527 51 283 4.3 5.2 0.00 0.20 0.02 99
20260504181542 51 280 5.2 6.1 0.00 0.20 0.02 99
20260504180527 51 277 5.2 7.0 0.00 0.20 0.02 99
20260504175524 51 280 4.3 7.0 0.00 0.20 0.02 99
20260504174549 51 281 5.2 7.0 0.00 0.20 0.02 99
20260504173525 51 275 5.2 7.0 0.00 0.20 0.02 98
20260504172521 51 270 5.2 7.8 0.00 0.20 0.02 98
20260504171548 51 283 5.2 7.0 0.00 0.20 0.02 98
20260504170522 50 279 6.1 7.8 0.00 0.20 0.02 98
20260504150522 52 288 7.0 9.6 0.00 0.20 0.02 97
20260504140525 51 280 6.1 8.7 0.00 0.20 0.02 98
20260504130529 51 281 5.2 7.0 0.00 0.20 0.02 96
20260504110527 52 263 7.0 8.7 0.00 0.20 0.02 91
20260504100522 53 257 7.8 11.3 0.00 0.20 0.02 90
20260504081525 56 255 17.4 22.6 0.00 0.20 0.02 81
20260504080521 56 253 14.8 18.2 0.00 0.20 0.02 78
20260504050523 58 248 13.0 17.4 0.01 0.20 0.02 88
20260504045528 58 250 13.0 18.2 0.01 0.20 0.02 86
20260504044525 57 243 12.2 18.2 0.01 0.20 0.02 90
20260504043521 56 243 9.6 13.0 0.00 0.20 0.01 90
20260504042526 56 212 5.2 7.8 0.00 0.19 0.01 88
20260504041523 56 246 12.2 18.2 0.00 0.19 0.01 90
20260504040527 58 262 14.8 20.9 0.00 0.19 0.01 86
20260504035523 59 260 14.8 20.0 0.00 0.19 0.01 84
20260504034528 59 253 17.4 24.3 0.00 0.19 0.01 82
20260504033525 59 264 17.4 26.1 0.00 0.19 0.01 82
20260504032521 59 269 18.2 27.8 0.00 0.19 0.01 84
20260504031525 59 274 20.0 27.8 0.00 0.19 0.01 84
20260504030523 58 285 18.2 23.5 0.00 0.19 0.01 88
20260504025527 58 280 18.2 25.2 0.00 0.19 0.01 89
20260504024524 58 276 18.2 25.2 0.00 0.19 0.01 87
20260504023529 58 270 18.2 24.3 0.00 0.19 0.01 84
20260504022525 58 268 20.0 24.3 0.00 0.19 0.01 88
20260504021520 57 277 20.9 26.9 0.00 0.19 0.01 91
20260504020526 57 277 18.2 25.2 0.00 0.19 0.01 92
20260504015522 57 278 19.1 25.2 0.00 0.19 0.01 93
20260504014528 56 275 20.0 24.3 0.00 0.19 0.01 96
20260504013543 56 281 19.1 25.2 0.00 0.19 0.01 99
20260504012528 55 284 16.5 22.6 0.00 0.19 0.01 99
20260504011546 54 284 15.6 20.0 0.00 0.19 0.01 99
20260504010521 54 283 14.8 20.0 0.00 0.19 0.01 99
20260504005526 54 281 15.6 20.9 0.01 0.19 0.01 99
20260504004521 53 279 18.2 22.6 0.01 0.19 0.01 99
20260504003527 53 281 16.5 22.6 0.02 0.19 0.01 99
20260504002524 53 282 16.5 23.5 0.03 0.19 0.01 99
20260504001528 53 286 17.4 22.6 0.04 0.19 0.01 99
20260504000525 53 283 18.2 23.5 0.05 0.19 0.00 99
20260503235521 53 285 17.4 24.3 0.06 0.19 0.19 99
20260503234526 53 285 18.2 26.9 0.08 0.18 0.18 99
20260503233523 52 286 20.0 26.9 0.12 0.18 0.18 99
20260503232549 52 287 20.9 27.8 0.12 0.16 0.16 99
20260503231523 52 290 18.2 22.6 0.11 0.15 0.15 99
20260503230529 52 293 13.0 18.2 0.10 0.14 0.14 99
20260503225525 52 288 15.6 20.9 0.10 0.13 0.13 99
20260503224521 52 284 15.6 21.7 0.08 0.10 0.10 99
20260503223526 52 283 18.2 24.3 0.04 0.06 0.06 99
20260503222543 52 289 16.5 26.1 0.02 0.04 0.04 99
20260503221528 51 289 17.4 22.6 0.02 0.04 0.04 99
20260503220523 51 290 16.5 23.5 0.02 0.04 0.04 99
20260503215528 51 297 17.4 24.3 0.02 0.03 0.03 99
20260503214525 51 297 17.4 22.6 0.02 0.02 0.02 99
20260503213542 51 297 16.5 20.9 0.01 0.02 0.02 99
20260503212526 51 294 14.8 20.9 0.01 0.02 0.02 99
20260503211522 51 295 13.9 17.4 0.01 0.02 0.02 99
20260503210527 51 290 14.8 20.9 0.01 0.01 0.01 99